TimeCDT,TemperatureF,Dew PointF,Humidity,Sea Level PressureIn,VisibilityMPH,Wind Direction,Wind SpeedMPH,Gust SpeedMPH,PrecipitationIn,Events,Conditions,WindDirDegrees,DateUTC
12:56 AM,55.9,54.0,93,30.23,10.0,Calm,Calm,-,N/A,,Clear,0,2013-10-30 05:56:00
1:56 AM,55.9,53.1,90,30.22,10.0,Calm,Calm,-,N/A,,Clear,0,2013-10-30 06:56:00
2:56 AM,55.9,53.1,90,30.21,9.0,Calm,Calm,-,N/A,,Clear,0,2013-10-30 07:56:00
3:56 AM,54.0,52.0,93,30.22,10.0,Calm,Calm,-,N/A,,Clear,0,2013-10-30 08:56:00
4:56 AM,54.0,51.1,90,30.22,9.0,Calm,Calm,-,N/A,,Clear,0,2013-10-30 09:56:00
5:56 AM,53.1,51.1,93,30.24,8.0,Calm,Calm,-,N/A,,Clear,0,2013-10-30 10:56:00
6:56 AM,54.0,51.1,90,30.25,9.0,Calm,Calm,-,N/A,,Clear,0,2013-10-30 11:56:00
7:56 AM,54.0,51.1,90,30.25,9.0,Calm,Calm,-,N/A,,Clear,0,2013-10-30 12:56:00
8:56 AM,64.9,57.9,78,30.26,10.0,Calm,Calm,-,N/A,,Clear,0,2013-10-30 13:56:00
9:56 AM,70.0,59.0,68,30.26,10.0,Variable,4.6,-,N/A,,Clear,0,2013-10-30 14:56:00
10:56 AM,75.0,55.9,51,30.25,10.0,South,6.9,-,N/A,,Clear,170,2013-10-30 15:56:00
11:56 AM,78.1,57.0,48,30.24,10.0,South,10.4,-,N/A,,Clear,180,2013-10-30 16:56:00
1:56 PM,80.1,57.0,45,30.18,10.0,Variable,4.6,-,N/A,,Clear,0,2013-10-30 18:56:00
2:56 PM,79.0,55.9,45,30.15,10.0,SSE,4.6,-,N/A,,Clear,160,2013-10-30 19:56:00
3:56 PM,77.0,55.9,48,30.15,10.0,South,6.9,-,N/A,,Clear,180,2013-10-30 20:56:00
4:56 PM,75.0,55.9,51,30.14,10.0,South,3.5,-,N/A,,Clear,170,2013-10-30 21:56:00
5:56 PM,72.0,57.0,59,30.13,10.0,Calm,Calm,-,N/A,,Clear,0,2013-10-30 22:56:00
6:56 PM,66.0,59.0,78,30.14,10.0,Calm,Calm,-,N/A,,Clear,0,2013-10-30 23:56:00
7:56 PM,64.9,60.1,84,30.14,10.0,Calm,Calm,-,N/A,,Clear,0,2013-10-31 00:56:00
8:56 PM,62.1,57.9,86,30.13,10.0,Calm,Calm,-,N/A,,Clear,0,2013-10-31 01:56:00
9:56 PM,61.0,57.9,90,30.14,10.0,SSW,3.5,-,N/A,,Clear,200,2013-10-31 02:56:00
10:56 PM,61.0,57.0,87,30.14,10.0,Calm,Calm,-,N/A,,Clear,0,2013-10-31 03:56:00
11:56 PM,59.0,55.0,87,30.12,10.0,Calm,Calm,-,N/A,,Clear,0,2013-10-31 04:56:00